Year,Month,Day,Hour,Minute,Value (Times are PST for temperature in C)
2014,05,24,09,43,13.30
2014,05,24,09,44,13.30
2014,05,24,09,45,13.30
2014,05,24,09,46,13.40
2014,05,24,09,47,13.40
2014,05,24,09,48,13.40
2014,05,24,09,49,13.50
2014,05,24,09,50,13.40
2014,05,24,09,51,13.40
2014,05,24,09,52,13.40
2014,05,24,09,53,13.40
2014,05,24,09,54,13.50
2014,05,24,09,55,13.50
2014,05,24,09,56,13.60
2014,05,24,09,57,13.60
2014,05,24,09,58,13.70
2014,05,24,09,59,13.70
2014,05,24,10,00,13.70
2014,05,24,10,01,13.70
2014,05,24,10,02,13.70
2014,05,24,10,03,13.80
2014,05,24,10,04,13.80
2014,05,24,10,05,13.80
2014,05,24,10,06,13.80
2014,05,24,10,07,13.80
2014,05,24,10,08,13.80
2014,05,24,10,09,13.80
2014,05,24,10,10,13.80
2014,05,24,10,11,13.90
2014,05,24,10,12,13.90
2014,05,24,10,13,13.90
2014,05,24,10,14,14.00
2014,05,24,10,15,14.00
2014,05,24,10,16,14.10
2014,05,24,10,17,14.00
2014,05,24,10,18,14.00
2014,05,24,10,19,14.00
2014,05,24,10,20,14.00
2014,05,24,10,21,14.00
2014,05,24,10,22,14.00
2014,05,24,10,23,14.00
2014,05,24,10,24,14.00
2014,05,24,10,25,14.00
2014,05,24,10,26,14.00
2014,05,24,10,27,14.00
2014,05,24,10,28,14.00
2014,05,24,10,29,14.00
2014,05,24,10,30,14.00
2014,05,24,10,31,14.00
2014,05,24,10,32,14.00
2014,05,24,10,33,14.10
2014,05,24,10,34,14.20
2014,05,24,10,35,14.20
2014,05,24,10,36,14.20
2014,05,24,10,37,14.20
2014,05,24,10,38,14.30
2014,05,24,10,39,14.20
2014,05,24,10,40,14.20
2014,05,24,10,41,14.20
2014,05,24,10,42,14.20
2014,05,24,10,43,14.20
2014,05,24,10,44,14.20
2014,05,24,10,45,14.20
2014,05,24,10,46,14.20
2014,05,24,10,47,14.30
2014,05,24,10,48,14.50
2014,05,24,10,49,14.60
2014,05,24,10,50,14.70
2014,05,24,10,51,14.80
2014,05,24,10,52,14.80
2014,05,24,10,53,14.80
2014,05,24,10,54,14.70
2014,05,24,10,55,14.70
2014,05,24,10,56,14.60
2014,05,24,10,57,14.60
2014,05,24,10,58,14.60
2014,05,24,10,59,14.50
2014,05,24,11,00,14.50
2014,05,24,11,01,14.50
2014,05,24,11,02,14.40
2014,05,24,11,03,14.40
2014,05,24,11,04,14.40
2014,05,24,11,05,14.40
2014,05,24,11,06,14.40
2014,05,24,11,07,14.40
2014,05,24,11,08,14.40
2014,05,24,11,09,14.40
2014,05,24,11,10,14.40
2014,05,24,11,11,14.40
2014,05,24,11,12,14.40
2014,05,24,11,13,14.50
2014,05,24,11,14,14.50
2014,05,24,11,15,14.60
2014,05,24,11,16,14.70
2014,05,24,11,17,14.80
2014,05,24,11,18,14.80
2014,05,24,11,19,15.00
2014,05,24,11,20,15.10
2014,05,24,11,21,15.20
2014,05,24,11,22,15.40
2014,05,24,11,23,15.40
2014,05,24,11,24,15.40
2014,05,24,11,25,15.40
2014,05,24,11,26,15.50
2014,05,24,11,27,15.50
2014,05,24,11,28,15.40
2014,05,24,11,29,15.40
2014,05,24,11,30,15.40
2014,05,24,11,31,15.30
2014,05,24,11,32,15.30
2014,05,24,11,33,15.30
2014,05,24,11,34,15.30
2014,05,24,11,35,15.30
2014,05,24,11,36,15.40
2014,05,24,11,37,15.50
2014,05,24,11,38,15.60
2014,05,24,11,39,15.70
2014,05,24,11,40,15.80
2014,05,24,11,41,15.80
2014,05,24,11,42,15.80
2014,05,24,11,43,15.70
2014,05,24,11,44,15.60
2014,05,24,11,45,15.60
2014,05,24,11,46,15.50
2014,05,24,11,47,15.50
2014,05,24,11,48,15.40
2014,05,24,11,49,15.40
2014,05,24,11,50,15.40
2014,05,24,11,51,15.40
2014,05,24,11,52,15.40
2014,05,24,11,53,15.40
2014,05,24,11,54,15.40
2014,05,24,11,55,15.40
2014,05,24,11,56,15.40
2014,05,24,11,57,15.30
2014,05,24,11,58,15.30
2014,05,24,11,59,15.30
2014,05,24,12,00,15.30
2014,05,24,12,01,15.30
2014,05,24,12,02,15.30
2014,05,24,12,03,15.30
2014,05,24,12,04,15.30
2014,05,24,12,05,15.20
2014,05,24,12,06,15.20
2014,05,24,12,07,15.20
2014,05,24,12,08,15.20
2014,05,24,12,09,15.20
2014,05,24,12,10,15.20
2014,05,24,12,11,15.30
2014,05,24,12,12,15.30
2014,05,24,12,13,15.30
2014,05,24,12,14,15.30
2014,05,24,12,15,15.30
2014,05,24,12,16,15.30
2014,05,24,12,17,15.20
2014,05,24,12,18,15.30
2014,05,24,12,19,15.30
2014,05,24,12,20,15.30
2014,05,24,12,21,15.30
2014,05,24,12,22,15.30
2014,05,24,12,23,15.30
2014,05,24,12,24,15.30
2014,05,24,12,25,15.40
2014,05,24,12,26,15.40
2014,05,24,12,27,15.40
2014,05,24,12,28,15.50
2014,05,24,12,29,15.50
2014,05,24,12,30,15.40
2014,05,24,12,31,15.40
2014,05,24,12,32,15.30
2014,05,24,12,33,15.30
2014,05,24,12,34,15.30
2014,05,24,12,35,15.30
2014,05,24,12,36,15.30
2014,05,24,12,37,15.30
2014,05,24,12,38,15.30
2014,05,24,12,39,15.30
2014,05,24,12,40,15.30
2014,05,24,12,41,15.30
2014,05,24,12,42,15.30
2014,05,24,12,43,15.30
2014,05,24,12,44,15.30
2014,05,24,12,45,15.40
2014,05,24,12,46,15.40
2014,05,24,12,47,15.40
2014,05,24,12,48,15.40
2014,05,24,12,49,15.40
2014,05,24,12,50,15.50
2014,05,24,12,51,15.50
2014,05,24,12,52,15.60
2014,05,24,12,53,15.60
2014,05,24,12,54,15.60
2014,05,24,12,55,15.60
2014,05,24,12,56,15.60
2014,05,24,12,57,15.60
2014,05,24,12,58,15.50
2014,05,24,12,59,15.40
2014,05,24,13,00,15.30
2014,05,24,13,01,15.30
2014,05,24,13,02,15.30
2014,05,24,13,03,15.30
2014,05,24,13,04,15.30
2014,05,24,13,05,15.30
2014,05,24,13,06,15.20
2014,05,24,13,07,15.20
2014,05,24,13,08,15.20
2014,05,24,13,09,15.10
2014,05,24,13,10,15.10
2014,05,24,13,11,15.10
2014,05,24,13,12,15.20
2014,05,24,13,13,15.20
2014,05,24,13,14,15.20
2014,05,24,13,15,15.30
2014,05,24,13,16,15.30
2014,05,24,13,17,15.30
2014,05,24,13,18,15.30
2014,05,24,13,19,15.30
2014,05,24,13,20,15.40
2014,05,24,13,21,15.40
2014,05,24,13,22,15.40
2014,05,24,13,23,15.40
2014,05,24,13,24,15.40
2014,05,24,13,25,15.50
2014,05,24,13,26,15.50
2014,05,24,13,27,15.50
2014,05,24,13,28,15.50
2014,05,24,13,29,15.50
2014,05,24,13,30,15.50
2014,05,24,13,31,15.50
2014,05,24,13,32,15.50
2014,05,24,13,33,15.40
2014,05,24,13,34,15.40
2014,05,24,13,35,15.40
2014,05,24,13,36,15.40
2014,05,24,13,37,15.40
2014,05,24,13,38,15.50
2014,05,24,13,39,15.50
2014,05,24,13,40,15.50
2014,05,24,13,41,15.50
2014,05,24,13,42,15.40
2014,05,24,13,43,15.40
2014,05,24,13,44,15.30
2014,05,24,13,45,15.30
2014,05,24,13,46,15.30
2014,05,24,13,47,15.30
2014,05,24,13,48,15.30
2014,05,24,13,49,15.30
2014,05,24,13,50,15.30
2014,05,24,13,51,15.30
2014,05,24,13,52,15.30
2014,05,24,13,53,15.40
2014,05,24,13,54,15.40
2014,05,24,13,55,15.40
2014,05,24,13,56,15.30
2014,05,24,13,57,15.30
2014,05,24,13,58,15.30
2014,05,24,13,59,15.30
2014,05,24,14,00,15.30
2014,05,24,14,01,15.30
2014,05,24,14,02,15.30
2014,05,24,14,03,15.30
2014,05,24,14,04,15.20
2014,05,24,14,05,15.20
2014,05,24,14,06,15.20
2014,05,24,14,07,15.20
2014,05,24,14,08,15.20
2014,05,24,14,09,15.30
2014,05,24,14,10,15.30
2014,05,24,14,11,15.30
2014,05,24,14,12,15.30
2014,05,24,14,13,15.40
2014,05,24,14,14,15.40
2014,05,24,14,15,15.40
2014,05,24,14,16,15.40
2014,05,24,14,17,15.40
2014,05,24,14,18,15.40
2014,05,24,14,19,15.40
2014,05,24,14,20,15.40
2014,05,24,14,21,15.40
2014,05,24,14,22,15.50
2014,05,24,14,23,15.50
2014,05,24,14,24,15.50
2014,05,24,14,25,15.50
2014,05,24,14,26,15.50
2014,05,24,14,27,15.50
2014,05,24,14,28,15.50
2014,05,24,14,29,15.50
2014,05,24,14,30,15.50
2014,05,24,14,31,15.50
2014,05,24,14,32,15.50
2014,05,24,14,33,15.50
2014,05,24,14,34,15.50
2014,05,24,14,35,15.60
2014,05,24,14,36,15.70
2014,05,24,14,37,15.70
2014,05,24,14,38,15.80
2014,05,24,14,39,15.80
2014,05,24,14,40,15.80
2014,05,24,14,41,15.80
2014,05,24,14,42,15.80
2014,05,24,14,43,15.80
2014,05,24,14,44,15.70
2014,05,24,14,45,15.70
2014,05,24,14,46,15.70
2014,05,24,14,47,15.60
2014,05,24,14,48,15.60
2014,05,24,14,49,15.60
2014,05,24,14,50,15.60
2014,05,24,14,51,15.60
2014,05,24,14,52,15.60
2014,05,24,14,53,15.60
2014,05,24,14,54,15.60
2014,05,24,14,55,15.60
2014,05,24,14,56,15.50
2014,05,24,14,57,15.50
2014,05,24,14,58,15.50
2014,05,24,14,59,15.50
2014,05,24,15,00,15.50
2014,05,24,15,01,15.50
2014,05,24,15,02,15.50
2014,05,24,15,03,15.50
2014,05,24,15,04,15.50
2014,05,24,15,05,15.50
2014,05,24,15,06,15.40
2014,05,24,15,07,15.40
2014,05,24,15,08,15.50
2014,05,24,15,09,15.50
2014,05,24,15,10,15.50
2014,05,24,15,11,15.60
2014,05,24,15,12,15.50
2014,05,24,15,13,15.50
2014,05,24,15,14,15.50
2014,05,24,15,15,15.40
2014,05,24,15,16,15.40
2014,05,24,15,17,15.40
2014,05,24,15,18,15.40
2014,05,24,15,19,15.40
2014,05,24,15,20,15.30
2014,05,24,15,21,15.30
2014,05,24,15,22,15.30
2014,05,24,15,23,15.30
2014,05,24,15,24,15.30
2014,05,24,15,25,15.20
2014,05,24,15,26,15.10
2014,05,24,15,27,15.00
2014,05,24,15,28,15.00
2014,05,24,15,29,14.90
2014,05,24,15,30,14.80
2014,05,24,15,31,14.80
2014,05,24,15,32,14.80
2014,05,24,15,33,14.80
2014,05,24,15,34,14.80
2014,05,24,15,35,14.70
2014,05,24,15,36,14.70
2014,05,24,15,37,14.70
2014,05,24,15,38,14.80
2014,05,24,15,39,14.80
2014,05,24,15,40,14.80
2014,05,24,15,41,14.80
2014,05,24,15,42,14.80
2014,05,24,15,43,14.80
2014,05,24,15,44,14.80
2014,05,24,15,45,14.80
2014,05,24,15,46,14.80
2014,05,24,15,47,14.80
2014,05,24,15,48,14.80
2014,05,24,15,49,14.70
2014,05,24,15,50,14.70
2014,05,24,15,51,14.80
2014,05,24,15,52,14.80
2014,05,24,15,53,14.80
2014,05,24,15,54,14.80
2014,05,24,15,55,14.80
2014,05,24,15,56,14.90
2014,05,24,15,57,15.00
2014,05,24,15,58,15.00
2014,05,24,15,59,15.10
2014,05,24,16,00,15.10
2014,05,24,16,01,15.10
2014,05,24,16,02,15.10
2014,05,24,16,03,15.10
2014,05,24,16,04,15.10
2014,05,24,16,05,15.10
2014,05,24,16,06,15.10
2014,05,24,16,07,15.10
2014,05,24,16,08,15.10
2014,05,24,16,09,15.10
2014,05,24,16,10,15.20
2014,05,24,16,11,15.30
2014,05,24,16,12,15.30
2014,05,24,16,13,15.40
2014,05,24,16,14,15.50
2014,05,24,16,15,15.40
2014,05,24,16,16,15.40
2014,05,24,16,17,15.30
2014,05,24,16,18,15.30
2014,05,24,16,19,15.30
2014,05,24,16,20,15.30
2014,05,24,16,21,15.30
2014,05,24,16,22,15.30
2014,05,24,16,23,15.30
2014,05,24,16,24,15.30
2014,05,24,16,25,15.30
2014,05,24,16,26,15.40
2014,05,24,16,27,15.40
2014,05,24,16,28,15.50
2014,05,24,16,29,15.60
2014,05,24,16,30,15.80
2014,05,24,16,31,15.80
2014,05,24,16,32,15.90
2014,05,24,16,33,16.00
2014,05,24,16,34,16.10
2014,05,24,16,35,16.20
2014,05,24,16,36,16.20
2014,05,24,16,37,16.30
2014,05,24,16,38,16.30
2014,05,24,16,39,16.40
2014,05,24,16,40,16.50
2014,05,24,16,41,16.60
2014,05,24,16,42,16.70
2014,05,24,16,43,16.70
2014,05,24,16,44,16.70
2014,05,24,16,45,16.80
2014,05,24,16,46,16.90
2014,05,24,16,47,16.90
2014,05,24,16,48,16.90
2014,05,24,16,49,16.80
2014,05,24,16,50,16.80
2014,05,24,16,51,16.80
2014,05,24,16,52,16.70
2014,05,24,16,53,16.60
2014,05,24,16,54,16.50
2014,05,24,16,55,16.40
2014,05,24,16,56,16.30
2014,05,24,16,57,16.20
2014,05,24,16,58,16.20
2014,05,24,16,59,16.00
2014,05,24,17,00,15.90
2014,05,24,17,01,15.90
2014,05,24,17,02,15.80
2014,05,24,17,03,15.80
2014,05,24,17,04,15.80
2014,05,24,17,05,15.70
2014,05,24,17,06,15.70
2014,05,24,17,07,15.70
2014,05,24,17,08,15.70
2014,05,24,17,09,15.70
2014,05,24,17,10,15.70
2014,05,24,17,11,15.70
2014,05,24,17,12,15.70
2014,05,24,17,13,15.70
2014,05,24,17,14,15.70
2014,05,24,17,15,15.80
2014,05,24,17,16,15.80
2014,05,24,17,17,15.80
2014,05,24,17,18,15.80
2014,05,24,17,19,15.90
2014,05,24,17,20,15.90
2014,05,24,17,21,15.90
2014,05,24,17,22,15.90
2014,05,24,17,23,15.90
2014,05,24,17,24,15.80
2014,05,24,17,25,15.80
2014,05,24,17,26,15.80
2014,05,24,17,27,15.70
2014,05,24,17,28,15.70
2014,05,24,17,29,15.70
2014,05,24,17,30,15.70
2014,05,24,17,31,15.70
2014,05,24,17,32,15.70
2014,05,24,17,33,15.70
2014,05,24,17,34,15.60
2014,05,24,17,35,15.60
2014,05,24,17,36,15.60
2014,05,24,17,37,15.50
2014,05,24,17,38,15.50
2014,05,24,17,39,15.40
2014,05,24,17,40,15.40
2014,05,24,17,41,15.30
2014,05,24,17,42,15.30
2014,05,24,17,43,15.30
2014,05,24,17,44,15.30
2014,05,24,17,45,15.30
2014,05,24,17,46,15.30
2014,05,24,17,47,15.30
2014,05,24,17,48,15.20
2014,05,24,17,49,15.20
2014,05,24,17,50,15.20
2014,05,24,17,51,15.20
2014,05,24,17,52,15.20
2014,05,24,17,53,15.20
2014,05,24,17,54,15.30
2014,05,24,17,55,15.40
2014,05,24,17,56,15.50
2014,05,24,17,57,15.50
2014,05,24,17,58,15.60
2014,05,24,17,59,15.60
2014,05,24,18,00,15.70
2014,05,24,18,01,15.70
2014,05,24,18,02,15.70
2014,05,24,18,03,15.70
2014,05,24,18,04,15.60
2014,05,24,18,05,15.60
2014,05,24,18,06,15.60
2014,05,24,18,07,15.60
2014,05,24,18,08,15.50
2014,05,24,18,09,15.50
2014,05,24,18,10,15.40
2014,05,24,18,11,15.40
2014,05,24,18,12,15.30
2014,05,24,18,13,15.30
2014,05,24,18,14,15.30
2014,05,24,18,15,15.30
2014,05,24,18,16,15.20
2014,05,24,18,17,15.20
2014,05,24,18,18,15.20
2014,05,24,18,19,15.10
2014,05,24,18,20,15.10
2014,05,24,18,21,15.10
2014,05,24,18,22,15.10
2014,05,24,18,23,15.10
2014,05,24,18,24,15.00
2014,05,24,18,25,15.00
2014,05,24,18,26,14.90
2014,05,24,18,27,14.90
2014,05,24,18,28,14.90
2014,05,24,18,29,14.90
2014,05,24,18,30,14.80
2014,05,24,18,31,14.80
2014,05,24,18,32,14.80
2014,05,24,18,33,14.80
2014,05,24,18,34,14.80
2014,05,24,18,35,14.80
2014,05,24,18,36,14.80
2014,05,24,18,37,14.80
2014,05,24,18,38,14.80
2014,05,24,18,39,14.80
2014,05,24,18,40,14.80
2014,05,24,18,41,14.90
2014,05,24,18,42,14.90
2014,05,24,18,43,14.90
2014,05,24,18,44,14.90
2014,05,24,18,45,14.90
2014,05,24,18,46,15.00
2014,05,24,18,47,15.00
2014,05,24,18,48,15.00
2014,05,24,18,49,15.10
2014,05,24,18,50,15.10
2014,05,24,18,51,15.10
2014,05,24,18,52,15.20
2014,05,24,18,53,15.20
2014,05,24,18,54,15.20
2014,05,24,18,55,15.20
2014,05,24,18,56,15.30
2014,05,24,18,57,15.30
2014,05,24,18,58,15.30
2014,05,24,18,59,15.30
2014,05,24,19,00,15.30
2014,05,24,19,01,15.30
2014,05,24,19,02,15.30
2014,05,24,19,03,15.40
2014,05,24,19,04,15.50
2014,05,24,19,05,15.50
2014,05,24,19,06,15.50
2014,05,24,19,07,15.50
2014,05,24,19,08,15.60
2014,05,24,19,09,15.60
2014,05,24,19,10,15.70
2014,05,24,19,11,15.70
2014,05,24,19,12,15.70
2014,05,24,19,13,15.70
2014,05,24,19,14,15.70
2014,05,24,19,15,15.60
2014,05,24,19,16,15.60
2014,05,24,19,17,15.60
2014,05,24,19,18,15.60
2014,05,24,19,19,15.60
2014,05,24,19,20,15.60
2014,05,24,19,21,15.60
2014,05,24,19,22,15.50
2014,05,24,19,23,15.50
2014,05,24,19,24,15.50
2014,05,24,19,25,15.40
2014,05,24,19,26,15.30
2014,05,24,19,27,15.30
2014,05,24,19,28,15.30
2014,05,24,19,29,15.20
2014,05,24,19,30,15.10
2014,05,24,19,31,15.10
2014,05,24,19,32,15.00
2014,05,24,19,33,15.00
2014,05,24,19,34,15.00
2014,05,24,19,35,14.90
2014,05,24,19,36,14.90
2014,05,24,19,37,14.90
2014,05,24,19,38,14.90
2014,05,24,19,39,14.80
2014,05,24,19,40,14.80
2014,05,24,19,41,14.80
2014,05,24,19,42,14.80
2014,05,24,19,43,14.80
2014,05,24,19,44,14.80
2014,05,24,19,45,14.80
2014,05,24,19,46,14.70
2014,05,24,19,47,14.70
2014,05,24,19,48,14.70
2014,05,24,19,49,14.70
2014,05,24,19,50,14.70
2014,05,24,19,51,14.60
2014,05,24,19,52,14.60
2014,05,24,19,53,14.60
2014,05,24,19,54,14.60
2014,05,24,19,55,14.60
2014,05,24,19,56,14.60
2014,05,24,19,57,14.50
2014,05,24,19,58,14.50
2014,05,24,19,59,14.50
2014,05,24,20,00,14.50
2014,05,24,20,01,14.50
2014,05,24,20,02,14.50
2014,05,24,20,03,14.40
2014,05,24,20,04,14.40
2014,05,24,20,05,14.40
2014,05,24,20,06,14.40
2014,05,24,20,07,14.30
2014,05,24,20,08,14.30
2014,05,24,20,09,14.30
2014,05,24,20,10,14.20
2014,05,24,20,11,14.20
2014,05,24,20,12,14.20
2014,05,24,20,13,14.20
2014,05,24,20,14,14.20
2014,05,24,20,15,14.20
2014,05,24,20,16,14.20
2014,05,24,20,17,14.20
2014,05,24,20,18,14.20
2014,05,24,20,19,14.20
2014,05,24,20,20,14.20
2014,05,24,20,21,14.20
2014,05,24,20,22,14.20
2014,05,24,20,23,14.20
